{"data":{"norad_id":65231,"intl_designator":"2025-178D","name":"HULIANWANG DIGUI-71","alt_names":[],"object_type":"PAYLOAD","status":"ACTIVE","operator":null,"country":"PRC","launch_date":"2025-08-17","launch_site_code":"TAISC","launch_vehicle":null,"mission":null,"orbit_class":"UNKNOWN","rcs_meters":null,"size_class":null,"mass_kg":null,"dimensions":null,"purposes":[],"wikipedia_slug":null,"has_3d_model":false,"image_url":null,"decayed_at":null,"tle_current":{"epoch":"2026-09-21T21:14:30.412608Z","epoch_age_seconds":42579,"freshness":"FRESH","line1":"1 65231U 25178D   26264.88507422  .00000010  00000+0 -98920-5 0  9990","line2":"2 65231  86.5053 340.9617 0001644 107.9274 252.2040 13.24413771 53119","mean_motion":13.24413771,"eccentricity":0.0001644,"inclination_deg":86.5053,"raan_deg":340.9617,"arg_perigee_deg":107.9274,"mean_anomaly_deg":252.204,"bstar":-9.892e-6,"rev_number":5311,"period_min":108.72735028364,"perigee_km":1166.6672919278,"apogee_km":1169.1484314783,"semimajor_km":7546.0448617031,"source":"CELESTRAK","updated_at":"2026-09-22T09:00:30.214599Z"}}}